Vorticity
nan nan nan nan nan nan nan nan nan nan nan nan nan nan nan nan nan nan nan nan nan nan nan nan nan nan nan nan nan nan nan nan nan nan nan nan nan nan nan nan nan nan nan nan nan nan nan nan nan
nan 9 8 8 5 4 8 12 11 7 7 6 1 4 8 8 8 10 11 11 8 6 6 9 9 6 5 4 5 5 5 4 4 4 4 4 4 4 4 4 4 5 5 4 5 5 5 4 nan
nan 6 8 9 3 3 7 8 5 6 6 8 7 7 7 4 8 10 11 9 5 5 9 12 9 7 6 5 5 5 5 5 4 5 5 4 3 3 3 4 4 4 5 5 5 5 5 5 nan
nan 6 8 7 4 6 7 7 8 4 3 5 4 7 7 8 16 14 10 5 5 5 7 9 10 10 8 7 6 6 6 5 6 6 6 5 5 5 4 4 4 4 5 5 5 6 5 5 nan
nan 8 7 5 7 6 4 8 11 5 6 5 8 7 6 10 16 11 5 5 3 7 9 5 6 9 10 9 9 8 7 6 6 6 7 7 6 5 5 4 4 4 4 5 4 5 5 5 nan
nan 8 3 5 7 8 8 7 9 11 8 3 8 7 6 12 5 5 7 8 7 7 5 7 7 6 7 8 7 7 8 9 7 7 7 6 6 7 5 4 4 4 4 5 5 4 4 5 nan
nan 8 6 4 6 8 7 11 11 9 7 8 3 2 4 7 8 9 7 6 7 6 7 6 2 4 6 6 8 9 9 8 6 8 8 7 8 8 8 8 7 7 6 6 6 5 6 6 nan
nan 5 6 7 9 6 6 10 9 7 6 10 8 9 12 8 8 5 6 4 4 4 5 7 7 5 3 5 5 7 8 8 8 8 8 7 6 9 11 14 14 12 11 13 13 11 8 6 nan
nan 6 6 6 6 5 6 8 11 10 5 6 14 19 19 11 3 4 4 6 6 7 5 4 7 6 7 7 5 3 2 4 6 6 5 5 6 7 7 9 12 11 9 9 11 14 14 12 nan
nan 7 8 6 4 8 5 4 6 8 6 7 13 16 10 7 3 5 4 5 6 3 8 9 8 7 5 5 3 3 5 3 4 4 5 6 6 4 1 -1 0 4 6 2 2 7 13 16 nan
nan 5 7 6 8 7 4 7 10 7 10 15 12 5 2 4 4 3 1 3 6 9 11 10 10 8 9 9 8 7 4 6 6 6 8 7 7 6 7 3 3 0 5 6 5 7 6 7 nan
nan 8 6 3 6 9 7 5 9 6 13 21 14 6 5 6 9 6 5 5 7 10 8 8 8 9 12 10 6 7 8 9 5 6 8 10 7 7 7 10 6 6 6 7 7 7 6 7 nan
nan 3 4 9 6 8 7 8 8 6 15 13 11 7 8 7 4 6 8 8 6 7 6 7 9 7 7 9 9 8 9 7 8 6 7 10 9 9 7 8 7 9 8 8 7 7 6 7 nan
nan 8 8 10 12 11 8 9 10 12 11 8 10 6 6 9 8 7 6 9 7 5 7 8 7 8 9 8 8 7 7 6 9 8 7 9 11 9 8 7 8 7 7 8 8 8 8 9 nan
nan 8 13 10 13 12 10 6 14 13 9 8 7 8 8 6 9 9 9 8 8 6 7 8 8 8 8 7 6 7 7 8 8 7 6 9 9 9 9 8 7 7 7 8 8 8 8 8 nan
nan 9 9 4 9 14 11 15 12 7 9 6 5 5 5 6 7 6 8 8 7 8 8 8 8 7 7 8 8 8 8 8 7 7 6 6 7 8 9 8 7 8 8 8 7 7 8 8 nan
nan 8 4 7 8 10 9 16 9 9 7 5 4 6 6 8 6 8 7 5 7 9 8 8 8 9 8 7 7 7 8 7 7 7 6 6 7 8 9 8 7 8 9 8 8 8 8 5 nan
nan 6 8 7 4 8 8 14 12 9 7 6 5 6 5 3 5 8 5 6 8 8 9 7 8 7 6 6 7 6 6 6 7 7 7 7 7 8 9 8 8 9 8 7 9 9 9 7 nan
nan 6 7 8 6 5 10 11 15 14 7 1 4 7 6 6 8 7 4 6 7 6 8 8 8 6 5 6 7 8 8 7 7 6 7 8 8 8 8 8 7 8 8 8 9 10 8 6 nan
nan 7 7 9 11 8 4 10 16 7 6 9 10 7 6 6 8 8 6 4 8 8 6 7 7 7 7 9 9 9 8 8 7 6 5 6 7 8 8 8 8 8 8 8 9 10 11 8 nan
nan 9 8 8 10 10 2 -0 5 9 15 9 9 8 9 9 7 7 7 6 8 7 6 7 7 8 8 9 8 7 8 7 6 8 7 6 7 8 8 8 8 8 9 8 7 7 9 11 nan
nan 9 8 8 10 10 6 7 5 11 10 8 9 10 9 6 8 9 8 6 8 7 7 8 8 8 9 9 9 9 9 8 7 8 7 6 7 9 9 9 9 9 8 8 9 8 8 8 nan
nan 9 11 10 6 8 6 14 8 7 4 9 9 10 12 13 11 6 6 10 11 11 9 8 8 8 9 9 9 9 9 8 9 7 8 9 8 9 11 10 8 9 9 8 8 8 10 9 nan
nan 8 7 12 11 6 11 9 8 10 7 5 8 9 10 9 6 11 16 16 9 9 10 9 7 6 8 9 9 9 8 9 9 10 10 10 9 8 10 10 9 9 8 9 10 9 9 10 nan
nan 8 7 6 12 8 8 10 12 11 11 9 9 7 6 6 7 9 11 14 15 12 8 8 7 7 9 9 8 10 10 10 9 10 10 10 10 7 7 10 10 11 10 10 10 10 10 10 nan
nan 9 8 10 8 8 9 9 10 15 11 9 8 8 7 7 8 8 8 10 14 16 11 9 10 9 9 9 9 11 11 10 8 9 9 8 8 7 7 9 8 8 9 9 11 11 7 8 nan
nan 8 10 7 8 11 7 6 11 14 10 9 7 6 7 7 8 7 9 10 10 10 14 14 9 10 11 10 8 8 8 9 8 8 10 8 7 8 8 8 7 7 8 8 9 8 7 10 nan
nan 7 7 11 13 7 9 9 12 7 8 7 6 5 6 7 8 7 8 8 8 8 9 9 9 9 8 8 8 8 8 7 8 8 7 9 9 8 8 8 8 8 8 8 9 9 9 10 nan
nan 9 11 15 10 10 9 10 17 11 11 10 5 7 7 7 6 8 7 7 7 8 8 7 7 8 7 8 8 8 7 8 9 8 7 8 8 9 9 9 9 10 8 8 9 9 10 8 nan
nan nan nan nan nan nan nan nan nan nan nan nan nan nan nan nan nan nan nan nan nan nan nan nan nan nan nan nan nan nan nan nan nan nan nan nan nan nan nan nan nan nan nan nan nan nan nan nan nan
CAPE
0 0 0 0 0 0 0 0 0 0 0 0 6 2 24 85 139 7 239 289 565 911 1377 1729 1830 1830 1784 1751 1771 1796 1923 1952 1959 2181 2489 2541 2528 2509 2558 2583 2653 2634 2109 1883 1655 1443 1462 1545 1599
0 0 0 0 0 0 0 0 0 0 0 1 35 75 285 580 768 473 413 591 663 1160 1418 1632 1746 1782 1798 1711 1810 1897 1946 1860 1946 2203 2386 2553 2564 2538 2426 2230 2140 2349 1952 1719 1452 1226 1237 1377 1471
0 0 0 0 0 0 0 0 0 16 0 51 59 65 396 884 615 468 397 567 682 975 1277 1621 1668 1652 1699 1710 1779 1794 1696 1702 1733 1972 2240 2284 2424 2465 2458 2273 2165 2240 1802 1514 1295 1036 1026 1109 1047
0 0 0 0 0 0 0 0 0 29 26 28 28 186 102 344 746 421 389 344 433 768 1104 1224 1439 1470 1600 1811 1811 1621 1356 1310 1532 1726 2069 2220 2208 2308 2192 2034 2120 2185 1907 1498 1322 946 727 603 619
0 0 0 0 0 0 0 0 0 0 6 8 0 246 579 450 291 237 177 226 371 573 801 955 1282 1462 1731 2039 1872 1504 1290 1256 1472 1742 1841 2006 2162 2133 1930 1789 1856 1893 1838 1676 1316 777 447 357 357
0 0 0 0 0 0 0 0 0 7 20 26 432 496 119 273 112 173 169 154 291 468 667 917 1321 1446 1583 1676 1541 1351 1186 1266 1520 1613 1803 1864 1806 1748 1637 1590 1609 1639 1701 1722 1619 1145 583 304 249
0 0 0 0 0 0 0 0 0 0 0 7 121 102 196 774 316 233 204 225 267 354 470 552 636 771 1010 1146 1245 1257 1296 1340 1374 1342 1355 1390 1351 1329 1387 1346 1354 1416 1402 1457 1661 1673 1336 796 348
0 0 0 0 0 0 0 0 0 0 57 29 8 204 371 946 368 238 199 250 301 465 446 457 437 398 414 499 619 636 630 692 776 789 715 685 600 725 818 788 860 1059 1123 1210 1299 1295 1345 1307 1051
0 0 0 0 0 0 0 0 0 0 13 75 63 42 988 676 263 213 281 345 448 680 873 717 535 415 407 589 815 464 237 201 280 385 314 272 57 284 6 140 65 93 231 7 39 251 805 971 1074
0 0 0 0 0 0 0 0 0 0 0 106 1655 1511 576 438 323 310 336 375 488 633 778 937 850 576 839 1097 318 119 0 0 1 6 13 14 13 0 0 3 3 1 0 0 0 0 0 100 548
0 0 0 0 0 0 0 0 0 0 0 34 1562 1565 795 577 476 345 297 240 11 0 253 320 172 146 291 217 66 5 1 1 1 0 0 0 0 0 0 0 0 0 0 0 0 0 0 0 0
0 0 0 0 0 0 0 0 0 0 0 2 1499 1337 375 257 155 54 0 0 67 119 54 74 2 1 1 1 1 1 0 0 0 0 0 0 0 0 0 0 0 0 0 0 0 0 0 0 0
0 0 0 0 0 0 0 0 0 0 0 10 151 172 45 21 0 0 0 94 55 15 12 1 0 0 0 1 2 4 1 0 0 0 0 0 0 0 0 0 0 0 0 0 0 0 0 0 0
0 0 0 0 0 0 0 0 0 65 174 94 95 8 0 0 0 0 26 114 56 15 1 0 0 0 0 0 0 0 0 0 0 0 0 0 0 0 0 0 0 0 0 0 0 0 0 0 0
0 0 0 0 0 0 0 0 0 453 340 304 224 92 5 54 81 83 263 156 9 0 0 0 0 0 0 0 0 0 0 0 0 0 0 0 0 0 0 0 0 0 0 0 0 0 0 0 0
0 0 0 0 0 0 0 0 190 580 615 671 506 292 183 130 145 140 138 11 0 0 0 0 0 0 0 0 0 0 0 0 0 0 0 0 0 0 0 0 0 0 0 0 0 0 0 0 0
0 0 0 0 0 0 0 0 108 97 161 157 120 91 98 52 0 0 0 0 0 0 0 0 0 0 0 0 0 0 0 0 0 0 0 0 0 0 0 0 0 0 0 0 0 0 0 0 0
0 0 0 0 0 0 0 0 42 10 6 7 9 26 107 23 0 0 0 0 0 0 0 0 0 0 0 0 0 0 0 0 0 0 0 0 0 0 0 0 0 0 0 0 0 0 0 0 0
0 0 0 0 0 0 0 0 7 6 0 0 0 0 0 0 0 0 0 0 0 0 0 0 0 0 0 0 0 0 0 0 0 0 0 0 0 0 0 0 0 0 0 0 0 0 0 0 0
0 0 0 0 0 0 0 0 48 1 0 0 0 0 0 0 0 0 0 0 0 0 0 0 0 0 0 0 0 0 0 0 0 0 0 0 0 0 0 0 0 0 0 0 0 0 0 0 0
0 0 0 0 0 0 0 0 0 0 0 0 0 0 0 0 0 0 0 0 0 0 0 0 0 0 0 0 0 0 0 0 0 0 0 0 0 0 0 0 0 0 0 0 0 0 0 0 0
0 0 0 0 0 0 0 0 0 0 0 0 0 0 0 0 0 0 0 0 0 0 0 0 0 0 0 0 0 0 0 0 0 0 0 0 0 0 0 0 0 0 0 0 0 0 0 0 0
0 0 0 0 0 0 0 0 0 0 0 0 0 0 0 0 0 0 0 0 0 0 0 0 0 0 0 0 0 0 0 0 0 0 0 0 0 0 0 0 0 0 0 0 0 0 0 0 0
0 0 0 0 0 0 0 0 0 0 0 0 0 0 0 0 0 0 0 0 0 0 0 0 0 0 0 0 0 0 0 0 0 0 0 0 0 0 0 0 0 0 0 0 0 0 0 0 0
0 0 0 0 0 0 0 0 0 0 0 0 0 0 0 0 0 0 0 0 0 0 0 0 0 0 0 0 0 0 0 0 0 0 0 0 0 0 0 0 0 0 0 0 0 0 0 0 0
0 0 0 0 0 0 0 0 0 0 0 0 0 0 0 0 0 0 0 0 0 0 0 0 0 0 0 0 0 0 0 0 0 0 0 0 0 0 0 0 0 0 0 0 0 0 0 0 0
0 0 0 0 0 0 0 0 0 0 0 0 0 0 0 0 0 0 0 0 0 0 0 0 0 0 0 0 0 0 0 0 0 0 0 0 0 0 0 0 0 0 0 0 0 0 0 0 0
0 0 0 0 0 0 0 0 0 0 0 0 0 0 0 0 0 0 0 0 0 0 0 0 0 0 0 0 0 0 0 0 0 0 0 0 0 0 0 0 0 0 0 0 0 0 0 0 0
0 0 0 0 0 0 0 0 0 0 0 0 0 0 0 0 0 0 0 0 0 0 0 0 0 0 0 0 0 0 0 0 0 0 0 0 0 0 0 0 0 0 0 0 0 0 0 0 0
0 0 0 0 0 0 0 0 0 0 0 0 0 0 0 0 0 0 0 0 0 0 0 0 0 0 0 0 0 0 0 0 0 0 0 0 0 0 0 0 0 0 0 0 0 0 0 0 0